Tracking 31027 objects as of 19-Jul-2025
HD Live streaming from Space Station
objects crossing your sky now

NOAA 16 DEB

Track NOAA 16 DEB now!
10-day predictions


NORAD ID: 42384
Int'l Code: 2000-055SC
Perigee: 788.6 km
Apogee: 807.9 km
Inclination: 98.7 °
Period: 100.7 minutes
Semi major axis: 7169 km
RCS: Unknown
Launch date: September 21, 2000
Source: United States (US)
Launch site: AIR FORCE WESTERN TEST RANGE (AFWTR)

Note: This is SATELLITE DEBRIS
Your satellite tracking list
COSMOS 628
Track 1 satellite(s)




NASA's NSSDC Master Catalog

Two Line Element Set (TLE):
1 42384U 00055SC  25192.49616381  .00002705  00000-0  10604-2 0  9995
2 42384  98.6842 265.5273 0013452 218.6227 141.3994 14.30196104483211
Source of the keplerian elements: AFSPC